Hourly Weather Roundup
Issued by NWS Central Illinois

Home | Current Version | Previous Version | Graphics & Text | Print | Product List | Glossary On
Versions: 1 2 3 4 5 6 7 8 9 10 11 12 13 14 15 16 17 18 19 20 21 22 23 24 25 26 27 28 29 30 31 32 33 34 35 36 37 38 39 40 41 42 43 44 45 46 47 48 49 50
000
NZUS43 KILX 060210
HWRILX

AREA WEATHER ROUNDUP
NATIONAL WEATHER SERVICE, LINCOLN IL
900 PM CDT TUE MAY 05 2015


CITY           SKY/WX    TMP DP  RH WIND       PRES   REMARKS
BLOOMINGTON    MOCLDY    66  63  90 E10       30.16R
CHAMPAIGN      PTCLDY    71  54  54 N5        30.14R
DANVILLE       MOCLDY    65  60  85 NE6       30.13R
DECATUR        MOCLDY    74  54  49 S5        30.13R
EFFINGHAM      MOCLDY    74  51  45 S3        30.16R
FLORA          PTCLDY    69  55  59 S5        30.16R
GALESBURG      CLEAR     67  64  90 E8        30.13R FOG
JACKSONVILLE   CLOUDY    79  54  42 S6        30.12R
LACON          MOCLDY    62  58  86 NE9       30.16R FOG
LAWRENCEVILLE  CLEAR     70  55  59 S7        30.16
LITCHFIELD     MOCLDY    71  56  59 SE3       30.14R
$$


CITY           SKY/WX    TMP DP  RH WIND       PRES   REMARKS
LINCOLN        PTCLDY    71  65  81 NE5       30.11R
MACOMB         MOCLDY    70  65  85 E8        30.13R
MATTOON        CLOUDY    75  55  49 S3        30.14R
MT CARMEL AP   CLEAR     73  45  35 CALM      30.16R
OLNEY-NOBLE AP MOCLDY    73  54  49 CALM      30.16R
PARIS          MOCLDY    69  54  59 S7        30.15S
PEORIA         CLEAR     72  65  78 E13       30.13R HAZE
PONTIAC        CLOUDY    61  60  95 NE12      30.17R FOG
RANTOUL        MOCLDY    70  65  85 NE9       30.15R
ROBINSON       PTCLDY    70  53  56 S5        30.16R
SPRINGFIELD    PTCLDY    76  54  46 S9        30.12R
TAYLORVILLE    CLOUDY    73  54  49 SW7       30.13R
$$

...REGIONAL REPORTS...


CITY           SKY/WX    TMP DP  RH WIND       PRES   REMARKS
CHICAGO O`HARE CLOUDY    49  47  93 NE7       30.21S FOG
KANKAKEE       MOCLDY    59  57  93 N7        30.17R
MOLINE         CLOUDY    63  59  87 E14       30.14R FOG
MOUNT VERNON   PTCLDY   N/A N/A N/A CALM      30.16R
PITTSFIELD     MOCLDY    76  57  52 S3        30.12R
QUINCY         MOCLDY    73  58  59 S5        30.10R
ROCKFORD       CLOUDY    53  49  86 E8        30.22S
$$


CITY           SKY/WX    TMP DP  RH WIND       PRES   REMARKS
BURLINGTON     PTCLDY    72  65  78 E9        30.10R
CEDAR RAPIDS   CLOUDY    59  59 100 E9        30.11R FOG
DES MOINES     CLOUDY    74  57  55 SE7       30.04S
KIRKSVILLE     MOCLDY    68  60  75 S8        30.08S
OTTUMWA        MOCLDY    69  66  90 NE13      30.07R
ST LOUIS       MOCLDY    78  55  44 SE9       30.13R
$$


CITY           SKY/WX    TMP DP  RH WIND       PRES   REMARKS
TERRE HAUTE    PTCLDY    71  55  56 S6        30.15R
EVANSVILLE     CLEAR     73  53  49 CALM      30.17R
INDIANAPOLIS   MOCLDY    73  52  47 S9        30.15S
LAFAYETTE      CLOUDY    68  62  81 E5        30.15R
MADISON        CLOUDY    54  48  80 E12       30.21S
MILWAUKEE      CLOUDY    46  41  82 NE5       30.25R
$$





USA.gov is the U.S. government's official web portal to all federal, state and local government web resources and services.